Location: DARK SKY Beskydy - Park tmavé oblohy, www.darkskybeskydy.cz
(49.4926°N, 18.5016°E)
Time: 09:39:46
(UTC+02:00)

STARLINK-11140 [DTC] - Pass Details

Date: 18 June 2024
Orbit: 339 x 340 km, 53.2° (Epoch: 22 July)

Event Time Altitude Azimuth Distance (km) Brightness Sun altitude
Rises 22:04:43 0° 287° (WNW) 2,127 7.6 -8.6°
Reaches altitude 10° 22:06:47 10° 295° (WNW) 1,287 6.6 -8.8°
Maximum altitude 22:09:30 39° 7° (N) 526 4.0 -9.1°
Drops below altitude 10° 22:12:14 10° 79° (E) 1,286 5.3 -9.3°
Enters shadow 22:13:52 - 87° (E) 1,947 6.1 -9.5°
